User: anonymous   Login
Location: Unspecified
(0.0000°N, 0.0000°E)
Time: 19:15:01
(UTC+00:00)
Language:

STARLINK-35221 - Orbit

View from above orbital plane
View from above orbital plane
View from above satellite
View from above satellite

Ground track
Ground track

The orbit is defined by the following mean orbital elements,

1 65695U          26145.55383241 +.00000000 +00000-0 +39110-3 0 00000
2 65695  53.1619 348.5127 0001380 115.1100 245.0045 15.30177528    08
Epoch (UTC): 25 May 2026 13:17:31
Eccentricity: 0.0001380
inclination: 53.1619°
perigee height: 474 km
apogee height: 476 km
right ascension of ascending node: 348.5127°
argument of perigee: 115.1100°
revolutions per day: 15.30177528
mean anomaly at epoch: 245.0045°

The dashed part of the orbit path shows where the satellite is in the earth's shadow,  

DLR